Regional Weather Roundup
Issued by NWS

Home | Current Version | Previous Version | Text Only | Print | Product List | Glossary Off
Versions: 1 2 3 4 5 6 7 8 9 10 11 12 13 14 15 16 17 18 19 20 21 22 23 24 25 26 27 28 29 30 31 32 33 34 35 36 37 38 39 40 41 42 43 44 45 46 47 48 49 50

000
ASUS43 KLMK 310110
RWRKY
KENTUCKY REGIONAL WEATHER ROUNDUP
NATIONAL WEATHER SERVICE LOUISVILLE KY
900 PM EDT SUN AUG 30 2015

NOTE "FAIR" INDICATES FEW OR NO CLOUDS BELOW 12,000 FEET
WITH NO SIGNIFICANT WEATHER AND/OR OBSTRUCTIONS TO VISIBILITY.

KYZ001>023-026-027-061>063-070>075-310200-
WESTERN AND SOUTH CENTRAL KENTUCKY

CITY           SKY/WX    TMP DP  RH WIND       PRES   REMARKS
PADUCAH        PTCLDY    73  68  84 SE6       30.04R
HENDERSON      CLOUDY    73  70  88 S6        30.03R
OWENSBORO      CLOUDY    76  72  87 SW6       30.06R
HOPKINSVILLE   CLOUDY    73  70  92 S3        30.05F
BOWLING GREEN  PTCLDY    77  64  64 SE5       30.08R
GLASGOW        PTCLDY    69  61  74 CALM      30.09R
$$

KYZ024-025-028>034-038-045-046-053-310200-
NORTH CENTRAL KENTUCKY

CITY           SKY/WX    TMP DP  RH WIND       PRES   REMARKS
LOUISVILLE/SDF PTCLDY    78  67  68 S6        30.06R
LOUISVILLE/LOU PTCLDY    75  70  84 SE3       30.07R
FORT KNOX      PTCLDY    75  66  73 S2        30.06R
$$

KYZ035>037-039>044-047>052-055>060-089>105-310200-
NORTHEAST KENTUCKY

CITY           SKY/WX    TMP DP  RH WIND       PRES   REMARKS
LEXINGTON      CLOUDY    75  67  76 CALM      30.10R
COVINGTON      MOCLDY    75  68  78 S3        30.07R
FRANKFORT      CLOUDY    73  68  84 CALM      30.08R
$$

KYZ054-064>069-076>088-106>120-310200-
SOUTHEAST KENTUCKY

CITY           SKY/WX    TMP DP  RH WIND       PRES   REMARKS
JACKSON        MOCLDY    75  65  70 CALM      30.12R
LONDON         CLOUDY    74  63  68 CALM      30.12R
SOMERSET       MOCLDY    72  64  78 CALM      30.11R
MIDDLESBORO    CLOUDY    71  68  89 W3        30.12R
MONTICELLO     CLOUDY    71  69  93 CALM      30.13R
$$



USA.gov is the U.S. government's official web portal to all federal, state and local government web resources and services.